Weather History for Middletown, OH

Change the Weather History Date:

Friday, September 6, 2013

  Actual Average (KDAY) Record (KDAY)
Temperature  
Mean Temperature 66 °F 69 °F  
Max Temperature 79 °F 80 °F 101 °F (1954)
Min Temperature 52 °F 59 °F 41 °F (1962)
Degree Days  
Heating Degree Days 0 1  
Month to date heating degree days 6  
Since 1 July heating degree days 8  
Cooling Degree Days 0 5  
Month to date cooling degree days 33  
Year to date cooling degree days 815  
Growing Degree Days 16 (Base 50)    
Moisture  
Dew Point 44 °F    
Average Humidity 54    
Maximum Humidity 84    
Minimum Humidity 20    
Precipitation  
Precipitation 0.00 in 0.11 in 0.80 in (1971)
Month to date precipitation 0.68  
Year to date precipitation 28.99  
Snow  
Snow 0.00 in 0.00 in 0.00 in ()
Month to date snowfall 0.0  
Since 1 July snowfall 0.0  
Since 1 September snowfall 0.0  
Snow Depth -    
Sea Level Pressure  
Sea Level Pressure 30.21 in    
Wind  
Wind Speed 3 mph (ENE)    
Max Wind Speed 8 mph    
Max Gust Speed -    
Visibility 10 miles    
Events      
T = Trace of Precipitation, MM = Missing Value Source: NWS Daily Summary

Daily Weather History Graph

Daily Weather History Graph

Search for Another Location

Airport:

Trip Planner

Search our weather history database for the weather conditions in past years. The results will help you decide how hot, cold, wet, or windy it might be!

Date:

Astronomy

Sep. 06, 2013 Rise Set
Actual Time 7:10 AM EDT 8:00 PM EDT
Civil Twilight 6:43 AM EDT 8:27 PM EDT
Nautical Twilight 6:10 AM EDT 8:59 PM EDT
Astronomical Twilight 5:37 AM EDT 9:33 PM EDT
Moon 8:21 AM EDT (9/6) 8:24 PM EDT (9/6)
Length of Visible Light 13h 44m
Length of Day
12h 49m
New Moon, 1% of the Moon is Illuminated
Sep 6
New Moon
Sep 12
First Quarter
Sep 19
Full
Sep 26
Last Quarter
Oct 4
New

Hourly Weather History & Observations

Time (EDT) Temp. Dew Point Humidity Pressure Visibility Wind Dir Wind Speed Gust Speed Precip Events Conditions
12:15 AM 61.5 °F 43.3 °F 51% 30.23 in 10.0 mi ENE 6.9 mph - N/A   Clear
12:35 AM 62.2 °F 43.5 °F 50% 30.24 in 10.0 mi ENE 8.1 mph - N/A   Clear
12:55 AM 61.0 °F 42.8 °F 51% 30.24 in 10.0 mi ENE 6.9 mph - N/A   Clear
1:15 AM 60.1 °F 44.2 °F 56% 30.25 in 10.0 mi ENE 4.6 mph - N/A   Clear
1:35 AM 59.0 °F 44.1 °F 58% 30.25 in 10.0 mi Calm Calm - N/A   Clear
1:55 AM 58.5 °F 44.8 °F 60% 30.26 in 10.0 mi NNE 5.8 mph - N/A   Clear
2:15 AM 57.7 °F 45.0 °F 62% 30.25 in 10.0 mi NNE 4.6 mph - N/A   Clear
2:35 AM 57.7 °F 46.2 °F 65% 30.25 in 10.0 mi Calm Calm - N/A   Clear
2:55 AM 55.4 °F 46.4 °F 72% 30.25 in 10.0 mi Calm Calm - N/A   Clear
3:15 AM 57.7 °F 48.6 °F 71% 30.26 in 10.0 mi Calm Calm - N/A   Clear
3:35 AM 55.4 °F 47.1 °F 74% 30.25 in 10.0 mi Calm Calm - N/A   Clear
3:55 AM 53.6 °F 46.9 °F 78% 30.25 in 10.0 mi Calm Calm - N/A   Clear
4:15 AM 52.7 °F 47.7 °F 83% 30.25 in 10.0 mi NNW 3.5 mph - N/A   Clear
4:35 AM 52.7 °F 47.7 °F 83% 30.26 in 10.0 mi North 4.6 mph - N/A   Clear
4:55 AM 52.7 °F 47.3 °F 82% 30.26 in 10.0 mi Calm Calm - N/A   Clear
5:15 AM 52.7 °F 46.9 °F 81% 30.26 in 10.0 mi Calm Calm - N/A   Clear
5:35 AM 52.7 °F 47.1 °F 81% 30.26 in 10.0 mi North 4.6 mph - N/A   Clear
5:55 AM 52.7 °F 47.5 °F 82% 30.26 in 10.0 mi North 4.6 mph - N/A   Clear
6:15 AM 52.7 °F 47.1 °F 81% 30.26 in 10.0 mi NNE 4.6 mph - N/A   Clear
6:35 AM 52.7 °F 47.1 °F 81% 30.27 in 10.0 mi NNE 3.5 mph - N/A   Clear
6:55 AM 52.7 °F 47.8 °F 84% 30.26 in 10.0 mi Calm Calm - N/A   Clear
7:15 AM 52.7 °F 47.5 °F 82% 30.26 in 10.0 mi Calm Calm - N/A   Clear
7:35 AM 52.7 °F 48.0 °F 84% 30.27 in 10.0 mi Calm Calm - N/A   Clear
7:55 AM 52.7 °F 48.0 °F 84% 30.28 in 10.0 mi Calm Calm - N/A   Clear
8:15 AM 55.0 °F 49.6 °F 82% 30.27 in 10.0 mi Calm Calm - N/A   Clear
8:35 AM 57.7 °F 49.6 °F 74% 30.27 in 10.0 mi ENE 3.5 mph - N/A   Clear
8:55 AM 58.1 °F 47.5 °F 68% 30.28 in 10.0 mi NE 3.5 mph - N/A   Clear
9:15 AM 60.1 °F 47.7 °F 64% 30.27 in 10.0 mi ENE 3.5 mph - N/A   Clear
9:35 AM 62.8 °F 45.3 °F 53% 30.27 in 10.0 mi East 4.6 mph - N/A   Clear
9:55 AM 67.6 °F 46.0 °F 46% 30.27 in 10.0 mi East 6.9 mph - N/A   Clear
10:15 AM 67.6 °F 42.6 °F 40% 30.27 in 10.0 mi East 6.9 mph - N/A   Clear
10:35 AM 67.6 °F 40.1 °F 37% 30.27 in 10.0 mi ENE 5.8 mph - N/A   Clear
10:55 AM 67.6 °F 39.2 °F 35% 30.27 in 10.0 mi Calm Calm - N/A   Clear
11:15 AM 70.2 °F 37.4 °F 30% 30.26 in 10.0 mi East 6.9 mph - N/A   Clear
11:35 AM 72.0 °F 39.6 °F 31% 30.26 in 10.0 mi ESE 3.5 mph - N/A   Clear
11:55 AM 72.7 °F 38.5 °F 29% 30.25 in 10.0 mi East 5.8 mph - N/A   Clear
12:15 PM 72.7 °F 36.3 °F 27% 30.25 in 10.0 mi Calm Calm - N/A   Clear
12:35 PM 72.7 °F 35.2 °F 25% 30.25 in 10.0 mi ESE 5.8 mph - N/A   Clear
12:55 PM 72.7 °F 35.4 °F 26% 30.24 in 10.0 mi SSE 3.5 mph - N/A   Clear
1:15 PM 75.2 °F 36.3 °F 24% 30.23 in 10.0 mi ESE 3.5 mph - N/A   Clear
1:35 PM 75.2 °F 36.7 °F 25% 30.22 in 10.0 mi Calm Calm - N/A   Clear
1:55 PM 75.2 °F 35.6 °F 24% 30.22 in 10.0 mi Calm Calm - N/A   Clear
2:15 PM 75.2 °F 35.8 °F 24% 30.22 in 10.0 mi Calm Calm - N/A   Clear
2:35 PM 77.2 °F 35.4 °F 22% 30.21 in 10.0 mi East 4.6 mph - N/A   Clear
2:55 PM 77.9 °F 36.5 °F 22% 30.20 in 10.0 mi NE 3.5 mph - N/A   Clear
3:15 PM 77.9 °F 35.4 °F 21% 30.19 in 10.0 mi Calm Calm - N/A   Clear
3:35 PM 77.9 °F 34.9 °F 21% 30.18 in 10.0 mi East 4.6 mph - N/A   Clear
3:55 PM 78.3 °F 34.3 °F 20% 30.17 in 10.0 mi Calm Calm - N/A   Clear
4:15 PM 77.9 °F 34.0 °F 20% 30.17 in 10.0 mi WNW 5.8 mph - N/A   Clear
4:35 PM 79.0 °F 34.7 °F 20% 30.16 in 10.0 mi ENE 3.5 mph - N/A   Clear
4:55 PM 79.0 °F 34.7 °F 20% 30.16 in 10.0 mi NE 3.5 mph - N/A   Clear
5:15 PM 79.0 °F 34.5 °F 20% 30.15 in 10.0 mi ENE 4.6 mph - N/A   Clear
5:35 PM 78.1 °F 34.7 °F 21% 30.15 in 10.0 mi Calm Calm - N/A   Clear
5:55 PM 77.9 °F 36.3 °F 22% 30.15 in 10.0 mi ENE 3.5 mph - N/A   Clear
6:15 PM 78.1 °F 35.4 °F 21% 30.15 in 10.0 mi Calm Calm - N/A   Clear
6:35 PM 77.9 °F 37.6 °F 23% 30.15 in 10.0 mi East 3.5 mph - N/A   Clear
6:55 PM 77.9 °F 37.9 °F 24% 30.15 in 10.0 mi Calm Calm - N/A   Clear
7:15 PM 75.6 °F 35.8 °F 24% 30.14 in 10.0 mi Calm Calm - N/A   Clear
7:35 PM 72.7 °F 54.1 °F 52% 30.14 in 10.0 mi Calm Calm - N/A   Clear
7:55 PM 67.6 °F 54.9 °F 64% 30.14 in 10.0 mi Calm Calm - N/A   Clear
8:15 PM 67.6 °F 55.8 °F 66% 30.14 in 10.0 mi Calm Calm - N/A   Clear
8:35 PM 62.8 °F 52.5 °F 69% 30.15 in 10.0 mi NW 3.5 mph - N/A   Clear
8:55 PM 60.3 °F 52.2 °F 75% 30.15 in 10.0 mi Calm Calm - N/A   Clear
9:15 PM 60.4 °F 50.9 °F 71% 30.14 in 10.0 mi Calm Calm - N/A   Clear
9:35 PM 59.7 °F 52.7 °F 78% 30.15 in 10.0 mi Calm Calm - N/A   Clear
9:55 PM 57.7 °F 50.7 °F 77% 30.15 in 10.0 mi Calm Calm - N/A   Clear
10:15 PM 58.3 °F 51.6 °F 78% 30.14 in 10.0 mi Calm Calm - N/A   Clear
10:35 PM 57.7 °F 50.9 °F 78% 30.14 in 10.0 mi Calm Calm - N/A   Clear
10:55 PM 57.7 °F 51.6 °F 80% 30.14 in 10.0 mi North 3.5 mph - N/A   Clear
11:15 PM 57.7 °F 51.8 °F 81% 30.14 in 10.0 mi Calm Calm - N/A   Clear
11:35 PM 57.4 °F 51.8 °F 82% 30.14 in 10.0 mi Calm Calm - N/A   Clear
11:55 PM 57.2 °F 51.3 °F 81% 30.13 in 10.0 mi Calm Calm - N/A   Clear